Regional Weather Roundup
Issued by NWS

Home | Current Version | Previous Version | Graphics & Text | Print | Product List | Glossary On
Versions: 1 2 3 4 5 6 7 8 9 10 11 12 13 14 15 16 17 18 19 20 21 22 23 24 25 26 27 28 29 30 31 32 33 34 35 36 37 38 39 40 41 42 43 44 45 46 47 48 49 50
000
ASUS43 KBIS 230702
RWRND

NORTH DAKOTA REGIONAL WEATHER ROUNDUP
NATIONAL WEATHER SERVICE BISMARCK ND
100 AM CST THU FEB 23 2017

NOTE: "FAIR" INDICATES FEW OR NO CLOUDS BELOW 12,000 FEET WITH NO
SIGNIFICANT WEATHER AND/OR OBSTRUCTIONS TO VISIBILITY.


NDZ001>003-009>011-017-230800-
NORTHWEST NORTH DAKOTA

CITY           SKY/WX    TMP DP  RH WIND       PRES   REMARKS
WILLISTON      CLOUDY    27  25  92 CALM      30.00F
MINOT          CLOUDY    32  27  81 SW5       29.98R
MINOT AFB      CLOUDY    31  28  90 W7        29.98R
$$

NDZ018>021-031>035-040>046-230800-
SOUTHWEST NORTH DAKOTA

CITY           SKY/WX    TMP DP  RH WIND       PRES   REMARKS
BISMARCK       CLOUDY    29  24  82 NW3       30.00S
DICKINSON      MOCLDY    24  21  88 N5        29.93F WCI  18
GARRISON         N/A     28  25  88 NW8       29.98S WCI  20
HETTINGER ARPT CLOUDY    28  25  88 NE8       29.96R WCI  20
$$

NDZ004>008-012>016-024-026-027-054-230800-
NORTHEAST NORTH DAKOTA

CITY           SKY/WX    TMP DP  RH WIND       PRES   REMARKS
GRAND FORKS    CLOUDY    29  21  72 N8        29.98R
GRND FRKS AFB  MOCLDY    29  24  82 N8        29.99R
DEVILS LAKE    FAIR      27  23  85 NW10      29.97S WCI  17
$$

NDZ022-023-025-028>030-036>039-047>053-230800-
SOUTHEAST NORTH DAKOTA

CITY           SKY/WX    TMP DP  RH WIND       PRES   REMARKS
FARGO          CLEAR     30  27  88 N13       29.96R WCI  20
JAMESTOWN      FAIR      26  23  88 NW7       29.95F WCI  18
$$




USA.gov is the U.S. government's official web portal to all federal, state and local government web resources and services.